This demonstration page uses our WeatherBlox Daily Observations layout. Learn more.

Left ArrowRight Arrow

41.86663, -103.66717

Hourly Observations for December 23, 2020

Temp ( °F °C ) Dew Point ( °F °C ) Humidity (%) Winds ( mph kmh ) Pressure ( in mb ) Visibility ( mi km ) Precip ( " mm )
12:53 am 00:53 Partly Cloudy 28 -2.2 14 -10 56 56 NW 36 57 29.71 1006 10 16 0.00 0.00
1:53 am 01:53 Cloudy 27 -2.8 14 -10 58 58 NW 33 54 29.74 1007 10 16 0.00 0.00
2:39 am 02:39 Windy with Snow Likely 25 -3.9 17 -8.3 72 72 NW 29 46 29.98 1015 3 4 0.00 0.00
2:49 am 02:49 Windy with Snow Likely 25 -4 18 -8 74 74 NW 33 54 30.00 1016 1 2 0.00 0.00
2:53 am 02:53 Very Windy with Snow Likely 25 -3.9 15 -9.4 66 66 NW 39 63 29.81 1010 2 3 0.00 0.00
3:01 am 03:01 Cloudy 26 -3.3 14 -10 60 60 NW 33 54 29.99 1016 9 14 0.00 0.00
3:20 am 03:20 Very Windy with Snow Likely 25 -3.9 16 -8.9 69 69 NW 38 61 30.01 1016 3 4 0.00 0.00
3:28 am 03:28 Cloudy 26 -3.3 14 -10 60 60 NW 38 61 30.01 1016 9 14 0.00 0.00
3:53 am 03:53 Windy with Snow Likely 25 -3.9 15 -9.4 66 66 NW 26 43 29.87 1012 6 10 0.00 0.00
4:12 am 04:12 Windy with Snow Likely 25 -3.9 13 -10.6 60 60 NW 37 59 30.04 1017 9 14 0.00 0.00
4:53 am 04:53 Very Windy with Snow Likely 25 -3.9 12 -11.1 58 58 NW 41 67 29.91 1013 6 10 0.00 0.00
5:02 am 05:02 Very Windy with Snow Likely 24 -4.4 13 -10.6 62 62 NW 47 76 30.08 1019 3 5 0.00 0.00
5:09 am 05:09 Windy with Snow Likely 23 -5 13 -10.6 65 65 NW 36 57 30.10 1019 3 4 0.00 0.00
5:16 am 05:16 Very Windy with Snow Likely 23 -5 13 -10.6 65 65 NW 38 61 30.12 1020 4 6 0.00 0.00
5:32 am 05:32 Very Windy with Snow Likely 23 -5 10 -12 58 58 NNW 39 63 30.15 1021 5 8 0.00 0.00
5:53 am 05:53 Very Windy with Snow Likely 22 -5.6 10 -12.2 60 60 NNW 39 63 30.04 1017 8 13 0.00 0.00
6:53 am 06:53 Windy with Snow Likely 22 -5.6 13 -10.6 68 68 NW 30 48 30.10 1019 7 11 0.00 0.00
7:53 am 07:53 Windy with Snow Likely 22 -5.6 12 -11.1 66 66 NW 28 44 30.15 1021 10 16 0.00 0.00
8:08 am 08:08 Windy with Snow Likely 22 -5.6 14 -10 71 71 NW 30 48 30.30 1026 2 3 0.00 0.00
8:15 am 08:15 Windy with Snow Likely 22 -5.6 14 -10 71 71 NW 23 37 30.30 1026 2 3 0.00 0.00
8:23 am 08:23 Windy with Snow Likely 22 -5.6 13 -10.6 68 68 NW 26 43 30.31 1027 3 5 0.00 0.00
8:53 am 08:53 Cloudy 22 -5.6 12 -11.1 66 66 NW 28 44 30.20 1023 9 14 0.00 0.00
9:50 am 09:50 Cloudy 25 -4 10 -12 54 54 NW 36 57 30.31 1026 10 16 0.00 0.00
9:53 am 09:53 Mostly Cloudy 24 -4.4 11 -11.7 57 57 NW 32 52 30.21 1023 10 16 0.00 0.00
10:53 am 10:53 Mostly Cloudy 25 -3.9 9 -12.8 50 50 NW 37 59 30.22 1024 10 16 0.00 0.00
11:53 am 11:53 Partly Cloudy 27 -2.8 7 -13.9 43 43 NW 26 43 30.22 1023 10 16 0.00 0.00
12:53 pm 12:53 Mostly Sunny 27 -2.8 6 -14.4 41 41 NW 28 44 30.21 1023 10 16 0.00 0.00
1:53 pm 13:53 Sunny 27 -2.8 2 -16.7 34 34 NNW 26 43 30.22 1023 10 16 0.00 0.00
2:53 pm 14:53 Sunny 27 -2.8 -2 -18.9 28 28 NW 29 46 30.25 1024 10 16 0.00 0.00
3:53 pm 15:53 Sunny 25 -3.9 0 -17.8 33 33 NW 17 28 30.27 1025 10 16 0.00 0.00
4:53 pm 16:53 Clear 23 -5 1 -17.2 38 38 NW 15 24 30.29 1026 10 16 0.00 0.00
5:53 pm 17:53 Clear 21 -6.1 1 -17.2 41 41 NW 12 19 30.31 1026 10 16 0.00 0.00
6:53 pm 18:53 Mostly Cloudy 21 -6.1 2 -16.7 43 43 NW 10 17 30.30 1026 10 16 0.00 0.00
7:53 pm 19:53 Clear 16 -8.9 2 -16.7 54 54 NW 10 17 30.31 1027 10 16 0.00 0.00
8:53 pm 20:53 Clear 14 -10 2 -16.7 58 58 WNW 8 13 30.32 1027 10 16 0.00 0.00
9:53 pm 21:53 Clear 13 -10.6 4 -15.6 67 67 NW 8 13 30.29 1026 10 16 0.00 0.00
10:53 pm 22:53 Clear 12 -11.1 4 -15.6 70 70 NW 8 13 30.29 1026 10 16 0.00 0.00
11:53 pm 23:53 Clear 14 -10 5 -15 67 67 NW 8 13 30.26 1025 10 16 0.00 0.00

Powered by AerisWeather